GALAXY 32 (G-32)

Last updated on Tue Sep 22 2026 00:03:16 GMT+0000 (Coordinated Universal Time)

1 54244U 22153B 26264.14439057 -.00000178 00000+0 00000+0 0 9990 2 54244 0.0133 91.0733 0000157 337.0360 252.9127 1.00271311 14106
UTC large
Height (km)
Speed (km/s)
/
Latitude / Longitude
Inclination (degrees)
Orbital Period (minutes)
Azimuth
Elevation
Range (km)
Doppler Factor

Next 0 passes for location: London (51.5072 / 0.1276)

No passes found over London.
GALAXY 32 (G-32)